INTELSAT 33E DEB, 64395

Orbit data source: Space-Track

INTELSAT 33E DEB, 64395 is space debris in GEO originally from a launch on Wed, 24 Aug 2016 UTC launched from the French Guiana (FRGUI). Debris objects in space refer to the collection of defunct objects orbiting the Earth. Examples of debris include non-operational satellites, rocket bodies, and fragments generated from explosions, collisions, or faulty payload assembly.

Loading next visibility...
Identifier
64395, 2016-053Z
Orbit
GEO
Country
Flag of USUS / ITSO
Related business
Manufacturer
Boeing/ES
Mission
Spacecraft
Bus & Motor
Unknown
Mass
Unknown
Launch date (UTC)
2016-08-24 (10 years ago)
Launch vehicle
Unknown
Launch site
French Guiana (FRGUI)
Object type
Payload
Rocket body
Debris
Shape & HBR
Unknown shape, 1.1 m
Radar Cross Section
RCS unknown

Expand to show TLE details & history
Last TLE update: 17 hours ago

TLE from 17 hours ago
0 INTELSAT 33E DEB
1 64395U 16053Z   26121.02037844  .00000032  00000-0  00000-0 0  9997
2 64395   2.2653 113.3928 0056555 249.5901 110.1657  0.99821852  5459
Epoch: 2026-05-01T00:29Z
TLE epoch observation values (Epoch: 2026-05-01T00:29:20.697Z)
Latitude
Longitude
-112.54113°
Altitude
35,995.306 km
Speed
3.064 km/s
True Right ascension
07h 35m 00s
True Declination
0° 00' 00"
Sunlit
Object was in daylight at epoch
Visualization orbit readout
Latitude
Unknown
Longitude
Unknown
Altitude
Unknown
Speed
Unknown
Apparent Right ascension
Unknown
Apparent Declination
Unknown
Sunlit
N/A
Visualization observer readout
Local Sidereal Time
01:16:22
Azimuth
Unknown
Elevation
Unknown
Doppler factor
Unknown
Orbital elements
Apogee altitude
36,153.451 km
Perigee altitude
35,675.081 km
Semi-major axis
42,292.403 km
Eccentricity
0.00566
Inclination
2.2653°
RAAN
113.3928°
Arg. of periapsis
249.5901°
True anomaly
110.77255°
Mean anomaly
110.1657°
Eccentric anomaly
110.46928°
Mean motion
0.24955 °/min
Orbital period
1,442.62 mins
BSTAR
0
Loading maneuver chart data...
Computing Atmospheric mass density...
Loading historical data...
Loading historical data...
Loading historical data...
Loading historical data...
Loading historical data...
Loading historical data...
Loading historical data...

Documentation

Showing up to 5 results
|